Frankfort, MI

7:18 PM EDT on May 26, 2017 (GMT -0400)
Frankfort

Weather History for KFKS - September, 2013

Change the Weather History Date:

Saturday, September 28, 2013

  Actual Average (KMBL) Record (KMBL)
Temperature  
Mean Temperature 64 °F -  
Max Temperature 77 °F 66 °F 84 °F (1952)
Min Temperature 52 °F 47 °F 28 °F (2000)
Growing Degree Days 14 (Base 50)    
Moisture  
Dew Point 53 °F    
Average Humidity 61    
Maximum Humidity 88    
Minimum Humidity 43    
Precipitation  
Precipitation 0.00 in - - ()
Sea Level Pressure  
Sea Level Pressure 30.01 in    
Wind  
Wind Speed 8 mph (SSE)    
Max Wind Speed 20 mph    
Max Gust Speed 30 mph    
Visibility 10 miles    
Events      
Averages and records for this station are not official NWS values.
T = Trace of Precipitation, MM = Missing Value Source: NWS Daily Summary

Daily Weather History Graph

Daily Weather History Graph

Search for Another Location

Airport or City:

Trip Planner

Search our weather history database for the weather conditions in past years. The results will help you decide how hot, cold, wet, or windy it might be!

Date:

Astronomy

Sep. 28, 2013 Rise Set
Actual Time 7:39 AM EDT 7:30 PM EDT
Civil Twilight 7:10 AM EDT 7:59 PM EDT
Nautical Twilight 6:36 AM EDT 8:33 PM EDT
Astronomical Twilight 6:01 AM EDT 9:07 PM EDT
Moon 1:13 AM EDT (9/28) 4:00 PM EDT (9/28)
Length of Visible Light 12h 49m
Length of Day
11h 51m
Last Quarter, 36% of the Moon is Illuminated
Sep 28
Last Quarter
Oct 4
New
Oct 11
First Quarter
Oct 18
Full
Oct 26
Last Quarter

Hourly Weather History & Observations

Time (EDT) Temp. Dew Point Humidity Pressure Visibility Wind Dir Wind Speed Gust Speed Precip Events Conditions
12:14 AM 52.9 °F 48.4 °F 85% 30.13 in 10.0 mi Calm Calm - N/A   Clear
12:34 AM 53.1 °F 49.3 °F 87% 30.13 in 10.0 mi Calm Calm - N/A   Clear
12:54 AM 53.4 °F 49.8 °F 88% 30.13 in 10.0 mi Calm Calm - N/A   Clear
1:14 AM 55.9 °F 50.2 °F 81% 30.13 in 10.0 mi Calm Calm - N/A   Clear
1:34 AM 57.7 °F 50.5 °F 77% 30.12 in 10.0 mi Calm Calm - N/A   Clear
1:55 AM 59.9 °F 51.4 °F 74% 30.12 in 10.0 mi SE 3.5 mph - N/A   Clear
2:15 AM 61.0 °F 52.2 °F 73% 30.12 in 10.0 mi SE 8.1 mph - N/A   Clear
2:35 AM 61.7 °F 52.0 °F 70% 30.12 in 10.0 mi SE 5.8 mph - N/A   Clear
2:55 AM 61.9 °F 52.0 °F 70% 30.12 in 10.0 mi SE 8.1 mph - N/A   Clear
3:15 AM 62.2 °F 52.2 °F 70% 30.11 in 10.0 mi SE 5.8 mph - N/A   Clear
3:35 AM 62.4 °F 52.3 °F 70% 30.11 in 10.0 mi SE 10.4 mph - N/A   Clear
3:55 AM 61.9 °F 52.7 °F 72% 30.10 in 10.0 mi SE 9.2 mph - N/A   Clear
4:15 AM 61.3 °F 52.9 °F 74% 30.11 in 10.0 mi SSE 10.4 mph 17.3 mph N/A   Clear
4:35 AM 60.8 °F 53.2 °F 76% 30.11 in 10.0 mi SSE 11.5 mph 17.3 mph N/A   Clear
4:56 AM 60.3 °F 53.6 °F 79% 30.11 in 10.0 mi SE 11.5 mph 17.3 mph N/A   Clear
5:16 AM 60.1 °F 52.9 °F 77% 30.11 in 10.0 mi SSE 11.5 mph 19.6 mph N/A   Clear
5:36 AM 59.9 °F 52.3 °F 76% 30.11 in 10.0 mi SE 10.4 mph 17.3 mph N/A   Clear
5:56 AM 59.4 °F 51.8 °F 76% 30.11 in 10.0 mi SSE 12.7 mph 18.4 mph N/A   Clear
6:11 AM 59.0 °F 50.5 °F 73% 30.11 in 10.0 mi SE 11.5 mph - N/A   Clear
6:31 AM 59.0 °F 50.2 °F 73% 30.11 in 10.0 mi SE 10.4 mph - N/A   Clear
6:51 AM 58.6 °F 50.2 °F 73% 30.11 in 10.0 mi SE 9.2 mph 16.1 mph N/A   Clear
7:11 AM 58.3 °F 50.4 °F 75% 30.11 in 10.0 mi SE 10.4 mph 16.1 mph N/A   Clear
7:31 AM 58.1 °F 51.6 °F 79% 30.11 in 10.0 mi SE 12.7 mph 18.4 mph N/A   Clear
7:52 AM 58.1 °F 52.0 °F 80% 30.11 in 10.0 mi SE 11.5 mph - N/A   Clear
8:12 AM 58.1 °F 52.9 °F 83% 30.11 in 10.0 mi SE 12.7 mph 16.1 mph N/A   Clear
8:32 AM 58.5 °F 53.4 °F 83% 30.11 in 10.0 mi SE 11.5 mph - N/A   Clear
8:52 AM 59.4 °F 52.9 °F 79% 30.11 in 10.0 mi SE 10.4 mph - N/A   Clear
9:12 AM 60.3 °F 53.1 °F 77% 30.11 in 10.0 mi SE 9.2 mph - N/A   Clear
9:32 AM 61.3 °F 53.1 °F 74% 30.10 in 10.0 mi SE 9.2 mph - N/A   Clear
9:52 AM 62.8 °F 53.2 °F 71% 30.10 in 10.0 mi SE 8.1 mph - N/A   Clear
10:12 AM 63.9 °F 53.2 °F 68% 30.10 in 10.0 mi SE 8.1 mph 16.1 mph N/A   Clear
10:32 AM 65.3 °F 53.8 °F 66% 30.08 in 10.0 mi ESE 9.2 mph - N/A   Clear
10:52 AM 66.9 °F 53.8 °F 63% 30.08 in 10.0 mi SE 8.1 mph - N/A   Clear
11:13 AM 68.2 °F 54.3 °F 61% 30.07 in 10.0 mi SE 11.5 mph 16.1 mph N/A   Clear
11:33 AM 69.8 °F 54.3 °F 58% 30.06 in 10.0 mi SSE 10.4 mph - N/A   Clear
11:53 AM 70.7 °F 54.5 °F 56% 30.06 in 10.0 mi SSE 12.7 mph 17.3 mph N/A   Clear
12:13 PM 72.7 °F 54.9 °F 53% 30.05 in 10.0 mi South 12.7 mph 17.3 mph N/A   Clear
12:33 PM 73.4 °F 54.7 °F 52% 30.04 in 10.0 mi SSE 10.4 mph 16.1 mph N/A   Clear
12:53 PM 74.3 °F 54.1 °F 49% 30.03 in 10.0 mi South 13.8 mph 20.7 mph N/A   Clear
1:13 PM 75.2 °F 54.3 °F 48% 30.02 in 10.0 mi SSE 13.8 mph 17.3 mph N/A   Clear
1:34 PM 76.3 °F 54.7 °F 47% 30.02 in 10.0 mi SSE 12.7 mph 17.3 mph N/A   Clear
1:54 PM 76.6 °F 54.9 °F 47% 30.00 in 10.0 mi South 11.5 mph 20.7 mph N/A   Clear
2:14 PM 77.0 °F 55.2 °F 47% 29.99 in 10.0 mi SW 11.5 mph - N/A   Clear
2:34 PM 76.3 °F 55.4 °F 48% 29.98 in 10.0 mi SSW 12.7 mph 18.4 mph N/A   Clear
2:54 PM 77.2 °F 55.0 °F 46% 29.96 in 10.0 mi South 15.0 mph 18.4 mph N/A   Clear
3:14 PM 77.5 °F 54.3 °F 44% 29.96 in 10.0 mi SW 10.4 mph 19.6 mph N/A   Clear
3:34 PM 75.7 °F 55.6 °F 49% 29.95 in 10.0 mi SSW 6.9 mph 18.4 mph N/A   Clear
3:54 PM 75.4 °F 55.4 °F 50% 29.94 in 10.0 mi SSW 10.4 mph 16.1 mph N/A   Clear
4:14 PM 74.8 °F 55.6 °F 51% 29.93 in 10.0 mi SW 8.1 mph - N/A   Clear
4:34 PM 74.1 °F 55.0 °F 51% 29.92 in 10.0 mi SSW 5.8 mph - N/A   Clear
4:54 PM 77.2 °F 53.2 °F 43% 29.92 in 10.0 mi SSE 17.3 mph 23.0 mph N/A   Clear
5:14 PM 77.2 °F 53.2 °F 43% 29.92 in 10.0 mi SSE 12.7 mph 24.2 mph N/A   Clear
5:34 PM 76.1 °F 53.4 °F 45% 29.92 in 10.0 mi South 11.5 mph 24.2 mph N/A   Clear
5:55 PM 76.5 °F 54.0 °F 46% 29.92 in 10.0 mi South 12.7 mph 17.3 mph N/A   Clear
6:15 PM 76.1 °F 52.2 °F 43% 29.92 in 10.0 mi South 12.7 mph 16.1 mph N/A   Clear
6:35 PM 75.2 °F 52.5 °F 45% 29.91 in 10.0 mi South 13.8 mph 19.6 mph N/A   Clear
6:55 PM 74.3 °F 52.7 °F 47% 29.90 in 10.0 mi SSE 10.4 mph 21.9 mph N/A   Clear
7:15 PM 73.0 °F 52.7 °F 49% 29.89 in 10.0 mi SSE 10.4 mph - N/A   Clear
7:35 PM 72.3 °F 53.1 °F 51% 29.88 in 10.0 mi SSE 9.2 mph 17.3 mph N/A   Clear
7:55 PM 71.8 °F 52.9 °F 51% 29.88 in 10.0 mi SSE 10.4 mph 17.3 mph N/A   Clear
8:15 PM 71.6 °F 52.5 °F 51% 29.87 in 10.0 mi SSE 10.4 mph - N/A   Clear
8:36 PM 71.6 °F 52.9 °F 52% 29.87 in 10.0 mi SSE 11.5 mph 17.3 mph N/A   Clear
8:56 PM 72.0 °F 53.1 °F 51% 29.86 in 10.0 mi SSE 13.8 mph 18.4 mph N/A   Mostly Cloudy
9:16 PM 72.1 °F 52.7 °F 50% 29.86 in 10.0 mi SSE 15.0 mph 18.4 mph N/A   Overcast
9:36 PM 72.5 °F 52.7 °F 50% 29.85 in 10.0 mi SSE 13.8 mph 21.9 mph N/A   Overcast
9:51 PM 72.5 °F 52.3 °F 49% 29.85 in 10.0 mi SSE 13.8 mph 18.4 mph N/A   Overcast
10:11 PM 72.7 °F 52.3 °F 49% 29.85 in 10.0 mi SSE 16.1 mph 23.0 mph N/A   Overcast
10:31 PM 72.9 °F 52.2 °F 48% 29.85 in 10.0 mi SSE 17.3 mph 25.3 mph N/A   Overcast
10:51 PM 73.4 °F 52.2 °F 47% 29.84 in 10.0 mi SSE 11.5 mph 24.2 mph N/A   Overcast
11:11 PM 73.6 °F 52.3 °F 47% 29.85 in 10.0 mi South 13.8 mph 29.9 mph N/A   Overcast
11:31 PM 74.8 °F 53.1 °F 47% 29.85 in 10.0 mi SSW 12.7 mph 24.2 mph N/A   Overcast
11:51 PM 72.1 °F 55.6 °F 56% 29.87 in 7.0 mi South 19.6 mph 28.8 mph N/A   Overcast